Regional Weather Roundup
Issued by NWS Charleston, WV

Home | Current Version | Previous Version | Text Only | Print | Product List | Glossary Off
Versions: 1 2 3 4 5 6 7 8 9 10 11 12 13 14 15 16 17 18 19 20 21 22 23 24 25 26 27

790
ASUS41 KRLX 221110
RWRRLX
West Virginia Regional Weather Roundup
National Weather Service Charleston WV
700 AM EDT FRI MAY 22 2015

Note: "fair" indicates few or no clouds below 12,000 feet with no
significant weather and/or obstructions to visibility.

WVZ003-221200-
Northern Panhandle of West Virginia

CITY           SKY/WX    TMP DP  RH WIND       PRES   REMARKS
WHEELING       CLEAR     45  39  81 SW7       30.10
$$

WVZ009-221200-
Northwest West Virginia

CITY           SKY/WX    TMP DP  RH WIND       PRES   REMARKS
PARKERSBURG    CLEAR     42  40  92 SE3       30.17R
$$

WVZ006-221200-
Western West Virginia

CITY           SKY/WX    TMP DP  RH WIND       PRES   REMARKS
HUNTINGTON     FOG       41  41 100 SW5       30.20R VSB 1
$$

WVZ015-221200-
West Central West Virginia

CITY           SKY/WX    TMP DP  RH WIND       PRES   REMARKS
CHARLESTON     PTCLDY    45  44  97 SW6       30.19R FOG
$$

WVZ022-031-221200-
North Central West Virginia

CITY           SKY/WX    TMP DP  RH WIND       PRES   REMARKS
CLARKSBURG     CLEAR     44  43  96 S5        30.15R
MORGANTOWN     CLEAR     45  40  82 S7        30.14R
$$

WVZ025-035-042-045-221200-
Southern West Virginia

CITY           SKY/WX    TMP DP  RH WIND       PRES   REMARKS
BECKLEY        FOG       41  39  93 SW5       30.19R VSB 1/2
LOGAN          FOG       45  45 100 CALM      30.18R VSB 1/4
BLUEFIELD      CLOUDY    44  40  85 W8        30.20R FOG
LEWISBURG      CLEAR     43  40  87 CALM      30.18R
$$

WVZ047-221200-
Northern Mountains of West Virginia

CITY           SKY/WX    TMP DP  RH WIND       PRES   REMARKS
ELKINS         CLEAR     40  39  97 CALM      30.17R FOG
$$

WVZ052-221200-
Eastern Panhandle of West Virginia

CITY           SKY/WX    TMP DP  RH WIND       PRES   REMARKS
MARTINSBURG    SUNNY     47  43  86 S5        30.06R
PETERSBURG     SUNNY     45  41  85 E3        30.12R
$$



USA.gov is the U.S. government's official web portal to all federal, state and local government web resources and services.